Tracking 31027 objects as of 19-Jul-2025
HD Live streaming from Space Station
objects crossing your sky now

STARLINK-3117

Track STARLINK-3117 now!
10-day predictions
STARLINK-3117 is classified as:


NORAD ID: 49435
Int'l Code: 2021-104AD
Perigee: 546.1 km
Apogee: 547.7 km
Inclination: 53.2 °
Period: 95.4 minutes
Semi major axis: 6917 km
RCS: Unknown
Launch date: November 13, 2021
Source: United States (US)
Launch site: AIR FORCE EASTERN TEST RANGE (AFETR)
Your satellite tracking list
SKOLTECH-B2
Track 1 satellite(s)




NASA's NSSDC Master Catalog

Two Line Element Set (TLE):
1 49435U 21104AD  25199.67751178 -.00000324  00000-0 -22478-5 0  9990
2 49435  53.2154 179.6432 0001208  74.6215 285.4910 15.08835823203585
Source of the keplerian elements: AFSPC